loading
|

STARLINK-32079, 60336

Orbit data source: Space-Track

STARLINK-32079, 60336 is a payload satellite owned by SpaceX/Seattle (US) in LEO that was launched on Fri, 02 Aug 2024 UTC via an FALCON 9 launch vehicle from the Air Force Eastern Test Range (AFETR). Payloads include a variety of satellites, spacecraft, and rockets equipped with specific instruments for various scientific and technological missions. These include communications satellites like Starlink; space stations such as the ISS; scientific satellites like the Hubble; Earth observation satellites from companies like Planet Labs, Umbra, and HawkEye 360; GPS; miniature CubeSats for education and research; and military/defense satellites.

Loading next visibility...
Loading greatness...
STARLINK-32079 details
Identifier
60336, 2024-136H
Orbit
LEO
Last TLE update6 hours ago
Origin
Flag of USSpaceX/Seattle (US)
ManufacturerSpaceX/Seattle
Mission statusOperational
MissionUnknown
Bus & MotorSTARLINK V2M, Unknown motor
Mass750 kg wet, ~700 kg dry
Launch date (UTC)
2024-08-02 (2 months ago)
Launch vehicle
FALCON 9
Launch site
Air Force Eastern Test Range (AFETR)
Object type
Payload
Rocket body
Debris
Radar Cross SectionLarge (>1 m²)

Expand to show TLE details & history

TLE from 6 hours ago
0 STARLINK-32079
1 60336U 24136H   24261.73367299  .00003204  00000-0  90030-4 0  9990
2 60336  53.1632  54.9412 0000599  90.2449 269.8624 15.39621368  8500
Epoch: 2024-09-17T17:36Z
Definitive object data (Epoch: 2024-09-17T17:36:29.346Z)
Latitude-0.00006°
Longitude153.67479°
Altitude448.133 km
Speed7.645 km/s
True Right ascension03h 39m 45s
True Declination0° 00' 00"
Sunlit
Object was in full shadow at TLE epoch
Predictive object data (real-time)
Latitude-53.03926°
Longitude54.4202°
Altitude466.064 km
Speed7.633 km/s
Apparent Right ascension01h 05m 45s
Apparent Declination-60° 42' 16"
Sunlit
Object is in full shadow
Predictive observer data (real-time)
Local Sidereal Time16:14:47
Azimuth141.747° SSE
Elevation-54.519°
Doppler factor1
Orbital elements
Apogee447.894 km
Perigee447.076 km
Semi-major axis6,825.622 km
Eccentricity0.0000599
Inclination53.1632°
RAAN54.9412°
Arg. of periapsis90.2449°
True anomaly269.85554°
Mean anomaly269.8624°
Eccentric anomaly269.85897°
Mean motion3.84884 °/min
BSTAR0.00009003
Period93.53 mins
No data available

STARLINK-32079 Visibility forecast

Observer location: 39.9160978°, -105.1181434

STARLINK-32079 is not visible in the next 10 days
Span
Click to sort rows by Start time (UTC) header in descending order
Start Az.
Max El. time (UTC)
Max El. Az.
Max El.
End time (UTC)
End Az.